EHI
0 0 0 0 0 0 0 0 0 0 0 0 0 1 3 5 9 22 41 58 70 77 80 79 76 73 73 76 75 72 69 66 59 46 32 25 21 18 17 22 27 24 17 14
0 0 0 0 0 0 0 0 0 0 0 0 0 0 3 6 9 16 32 52 66 76 81 81 77 74 75 77 77 74 71 67 61 50 36 26 21 17 17 24 29 25 19 17
0 0 0 0 0 0 0 0 0 0 0 0 0 0 3 7 9 11 24 43 57 70 81 83 80 77 76 77 77 74 72 70 64 53 40 29 24 19 18 24 28 26 21 19
0 0 0 0 0 0 0 0 0 0 0 0 0 0 3 8 10 12 22 38 51 63 75 81 81 77 75 75 74 73 73 71 66 56 45 37 30 23 18 20 24 24 22 20
0 0 0 0 0 0 0 0 0 0 0 0 0 0 2 6 9 13 20 34 49 59 67 74 77 75 72 70 70 71 71 70 67 59 51 44 37 29 22 20 22 24 23 21
0 0 0 0 0 0 0 0 0 0 0 0 0 0 1 3 7 12 19 31 46 56 63 70 74 73 71 69 68 68 68 68 66 61 53 46 41 35 29 25 25 25 24 23
0 0 0 0 0 0 0 0 0 0 0 0 0 0 0 1 4 10 19 30 43 54 62 68 70 70 70 69 68 68 66 64 61 57 49 44 42 38 32 28 27 26 24 24
0 0 0 0 0 0 0 0 0 0 0 0 0 0 1 2 3 8 18 29 39 50 59 62 65 66 65 65 65 65 63 59 55 51 47 45 43 38 32 27 25 24 23 22
0 0 0 0 0 0 0 0 0 0 0 0 0 1 3 4 5 8 17 26 35 43 51 56 60 62 60 59 59 58 57 55 52 49 48 47 44 39 32 28 24 22 21 21
0 0 0 0 0 0 0 0 0 0 0 0 0 0 2 5 6 8 16 28 36 39 44 53 58 59 59 58 55 53 52 52 50 49 46 44 43 40 35 30 26 22 20 18
0 0 0 0 0 0 0 0 0 0 0 0 0 0 1 4 6 9 18 30 38 39 42 51 59 60 60 60 57 52 48 48 48 46 44 42 40 38 33 28 23 21 18 16
0 0 0 0 0 0 0 0 0 0 0 0 0 0 1 2 4 9 20 34 43 46 47 55 62 63 60 59 57 51 47 45 45 44 41 39 35 30 25 22 19 18 16 15
0 0 0 0 0 0 0 0 0 0 0 0 0 1 2 2 3 10 24 39 51 57 59 63 67 67 62 59 56 51 47 45 44 43 39 33 28 24 19 17 16 15 14 13
0 0 0 0 0 0 0 0 0 0 0 0 0 1 3 3 4 13 29 44 55 64 70 72 74 74 70 65 59 53 49 47 45 43 37 30 24 19 16 14 13 12 11 9
0 0 0 0 0 0 0 0 0 0 0 0 0 1 4 6 7 17 33 47 57 67 74 77 79 79 76 71 63 54 51 51 49 43 37 29 21 14 12 11 10 9 8 8
0 0 0 0 0 0 0 0 0 0 0 0 0 2 7 10 13 20 35 49 59 67 73 79 82 82 79 74 65 58 55 54 50 41 35 29 19 12 10 10 10 12 12 11
0 1 1 0 0 0 0 0 0 0 0 0 0 2 8 14 19 25 36 49 59 65 71 79 85 85 81 73 66 63 60 55 48 38 31 27 20 15 13 13 15 17 15 13
1 2 2 0 0 0 0 0 0 0 0 1 2 4 10 16 21 28 37 48 59 66 74 82 86 87 81 72 67 64 60 53 45 36 29 26 22 19 16 16 17 17 15 14
2 3 2 0 0 0 0 0 0 0 1 5 6 9 13 16 21 31 44 55 63 71 80 87 88 86 81 75 70 65 58 53 46 37 30 25 22 20 19 18 17 15 14 13
1 2 1 0 0 0 0 0 0 1 7 15 19 21 24 26 31 45 60 67 71 76 83 87 88 85 82 78 73 66 60 55 48 40 32 26 21 20 20 19 16 13 12 13
0 0 0 0 0 1 2 3 7 15 26 35 37 40 46 50 56 67 73 74 75 76 78 82 85 85 83 79 73 67 61 55 49 42 35 28 22 18 17 17 15 12 11 11
0 0 0 0 2 7 12 15 25 39 47 47 46 50 58 64 71 77 77 74 73 72 74 77 81 81 78 74 70 64 57 51 47 43 37 30 24 18 15 15 13 11 9 9
0 1 2 5 11 19 25 30 39 46 46 42 40 43 50 58 65 72 74 74 71 69 70 74 77 76 70 65 62 58 51 45 43 41 36 30 25 20 16 14 11 10 9 8
1 3 7 13 20 25 29 34 37 37 35 33 33 34 39 47 55 63 70 72 69 66 67 69 70 67 61 56 52 48 43 39 36 33 30 26 22 19 16 13 10 10 9 7
2 4 10 18 22 25 27 28 29 30 30 31 32 33 37 43 49 57 63 66 64 63 63 64 61 56 50 46 41 36 33 30 28 26 23 20 17 14 13 11 9 8 6 5
3 5 11 17 22 25 26 24 24 29 31 33 33 33 37 42 48 53 57 59 59 60 61 60 55 48 43 40 34 29 26 25 25 23 20 17 15 13 11 9 7 4 3 2
Wind_Speed
10 11 11 10 9 9 10 9 6 2 1 3 5 2 2 4 6 8 10 10 12 11 12 12 12 12 11 10 9 9 8 8 6 5 5 4 3 3 3 3 5 5 4 3
11 13 12 8 6 8 9 9 8 4 1 3 6 3 3 3 3 6 9 11 13 12 12 12 11 11 11 11 10 9 8 8 7 5 4 3 3 3 4 3 4 5 4 4
16 8 5 8 8 8 10 9 8 7 5 7 8 5 3 5 4 5 7 10 12 14 14 13 12 11 11 11 11 9 9 9 9 7 5 4 2 2 2 3 3 4 4 4
14 13 6 8 10 10 10 9 7 9 9 8 8 5 4 5 5 5 4 7 10 10 13 13 12 11 11 10 10 8 8 8 8 7 6 6 5 4 4 3 4 4 5 5
13 13 10 11 11 11 11 8 7 10 11 11 10 6 3 8 6 6 5 7 10 11 12 13 12 11 10 10 9 8 8 7 7 7 6 6 5 4 3 3 4 4 4 4
16 12 10 12 12 10 9 8 9 11 11 11 10 8 2 5 5 6 7 7 9 11 12 12 11 10 8 9 8 9 8 7 7 7 6 6 6 4 4 4 3 3 3 3
16 16 12 10 12 12 10 9 8 8 6 5 8 8 2 6 6 6 7 9 10 11 11 11 11 10 9 9 8 9 9 8 7 7 6 6 5 5 5 4 4 4 3 3
16 15 16 13 14 12 12 13 10 9 4 5 8 7 3 9 8 6 8 10 10 11 11 12 11 10 9 9 8 8 9 7 7 7 6 5 4 3 3 3 3 3 3 3
12 14 15 16 14 15 14 13 15 14 15 9 5 3 5 7 8 8 9 10 10 10 11 12 12 11 10 9 8 8 8 7 7 7 6 5 4 3 3 2 3 2 2 2
17 12 10 13 12 15 16 13 9 10 9 10 6 3 1 4 6 8 9 10 10 10 11 12 11 11 10 9 8 8 8 6 6 6 5 5 5 4 3 2 2 1 1 1
18 14 12 11 13 14 14 14 11 8 9 10 6 1 3 5 5 7 10 10 10 10 10 10 10 10 10 10 9 8 7 6 5 5 4 3 4 3 3 2 2 2 2 2
15 12 12 13 12 14 14 15 13 9 8 9 9 1 6 6 6 7 9 10 10 10 11 11 11 10 9 10 10 9 8 7 5 5 5 4 3 3 3 2 2 1 1 1
9 10 12 13 13 15 14 14 14 13 9 9 9 0 4 2 3 7 9 10 10 10 11 11 11 10 9 9 8 8 7 7 6 6 5 4 4 4 3 3 2 2 1 1
5 9 13 15 11 11 14 15 15 14 12 11 11 6 7 7 6 7 8 10 10 10 10 10 9 8 8 8 7 6 6 7 7 6 6 5 4 4 4 3 2 2 1 1
7 12 14 17 18 14 13 15 16 16 14 13 9 7 5 4 6 8 9 10 10 11 10 10 10 9 8 8 7 6 6 7 6 6 6 6 5 5 4 4 3 2 2 2
9 10 12 15 18 18 15 13 14 16 15 14 13 10 2 3 3 6 8 10 10 10 11 11 11 11 9 9 8 7 6 6 6 5 5 6 5 5 4 4 3 3 2 2
8 7 11 13 16 17 18 15 14 13 12 12 11 8 3 4 4 5 6 8 9 10 11 11 11 10 9 9 8 8 7 7 6 6 5 5 5 5 4 4 4 3 3 3
5 6 7 12 14 18 13 13 14 14 12 10 8 5 3 4 5 4 4 6 8 9 11 11 11 11 10 9 9 7 8 7 6 6 5 5 4 5 5 4 4 3 3 3
9 7 8 10 14 16 14 12 11 10 9 7 6 4 3 4 6 4 4 5 6 7 8 9 10 11 10 9 8 8 8 7 6 6 5 5 4 4 5 4 4 3 3 3
14 8 10 11 14 14 9 8 8 9 7 4 3 2 3 4 5 3 6 6 6 6 8 8 9 10 9 8 8 8 7 7 6 6 5 5 4 4 4 4 4 3 3 3
17 14 14 15 15 12 8 6 5 7 1 6 6 6 4 0 2 7 8 7 7 8 8 9 9 9 8 8 7 6 6 6 5 5 5 5 4 4 5 5 4 4 4 4
14 15 15 14 16 11 7 5 3 5 6 7 8 8 7 8 9 8 8 8 8 8 8 9 8 8 7 7 7 6 5 5 5 5 5 5 4 4 4 5 4 4 4 4
10 8 7 8 7 2 4 4 5 6 5 4 4 4 4 7 7 7 7 7 7 7 7 8 9 8 7 6 6 6 5 5 5 5 5 5 5 4 4 4 4 3 3 3
5 3 4 2 1 3 4 4 4 4 4 5 5 4 4 5 5 6 7 7 7 6 7 7 8 8 6 5 5 5 5 5 5 5 5 5 5 5 4 3 2 2 1 1
7 6 4 4 2 2 4 6 7 5 4 5 5 5 4 4 5 6 6 6 6 5 6 6 6 7 7 6 5 5 5 5 5 5 5 5 5 5 5 5 5 4 4 2
7 7 5 3 4 4 4 6 6 5 5 5 5 6 5 5 5 5 6 6 6 5 5 6 6 6 6 6 5 4 4 4 5 5 4 4 4 5 5 6 6 11 8 9
Wind_Direction
223 239 244 244 237 269 298 312 305 290 75 299 286 270 223 189 178 165 167 164 167 168 163 155 157 158 159 160 165 169 180 170 168 169 175 188 187 190 200 191 176 178 189 197
234 233 250 272 278 279 281 286 286 277 175 277 288 302 292 255 226 180 172 167 165 163 159 157 160 163 165 166 169 174 181 176 178 178 182 187 183 194 201 195 167 179 186 192
239 242 222 252 258 260 264 269 286 300 294 263 260 263 212 242 226 192 179 172 166 167 164 163 165 169 171 173 176 180 181 177 182 178 179 186 176 206 204 185 179 193 194 203
242 250 238 247 250 250 259 264 279 287 286 285 279 271 201 191 222 187 182 164 158 163 160 163 167 171 176 175 175 173 175 174 176 180 190 191 190 199 208 193 183 193 202 202
241 238 238 241 250 253 265 295 288 280 278 279 277 273 189 171 191 167 166 173 157 155 160 161 163 166 169 169 167 170 170 172 173 185 194 200 202 198 199 191 182 192 198 204
254 245 234 242 244 249 264 274 271 265 268 265 275 275 201 160 145 146 161 153 142 149 151 151 153 154 160 162 162 165 167 170 174 184 196 202 206 200 192 194 190 198 199 208
240 245 233 237 248 229 233 246 254 245 248 288 303 276 164 124 119 127 139 132 134 140 144 147 150 154 158 161 164 164 164 171 178 185 196 202 210 207 202 203 199 201 202 204
222 227 223 219 234 244 220 236 251 268 247 222 232 255 135 119 112 116 128 129 137 145 148 151 153 154 160 165 162 159 163 170 178 184 190 194 202 206 206 205 205 205 208 208
240 227 214 207 216 241 241 232 253 269 279 274 231 222 134 133 136 144 138 136 143 144 150 151 151 154 159 161 159 160 158 168 178 182 180 185 192 198 200 191 200 216 216 197
258 271 232 194 205 226 247 251 251 262 280 286 269 282 305 152 159 154 147 147 148 150 152 151 153 155 155 155 152 152 154 165 171 174 180 177 180 185 182 191 192 178 210 226
239 256 255 210 202 226 222 244 260 277 273 278 286 277 157 174 189 161 151 150 150 149 147 147 147 147 149 146 147 149 149 155 160 164 163 160 158 161 156 161 179 177 190 213
220 238 252 244 213 223 234 227 234 245 264 275 282 259 155 170 170 149 144 141 143 146 149 148 146 146 148 147 148 150 154 155 153 147 146 148 146 143 145 156 165 170 183 193
221 234 240 247 232 209 229 233 230 236 247 263 269 175 128 120 134 144 144 139 142 147 146 147 149 151 152 145 144 149 154 152 151 147 143 139 143 141 140 136 135 139 146 163
261 237 242 242 240 218 215 233 237 235 237 240 249 230 192 190 172 150 143 143 148 149 148 151 147 143 142 139 140 147 149 143 145 143 142 139 142 138 134 129 125 125 124 126
249 241 246 259 269 267 247 226 228 236 245 258 258 252 225 181 163 151 149 150 155 155 159 154 150 147 145 141 145 150 144 139 139 143 145 142 139 135 132 128 125 121 116 108
226 257 256 253 259 263 262 247 232 231 234 245 257 261 201 110 133 142 150 159 162 164 167 161 157 155 155 153 158 152 147 142 140 145 142 136 136 132 130 133 131 119 103 82
216 229 254 257 252 255 252 248 247 245 239 241 248 252 204 159 147 151 161 167 166 170 171 166 161 159 158 160 158 153 147 145 146 144 139 139 142 142 138 140 128 118 105 93
250 247 251 255 259 253 255 253 249 251 249 243 241 241 180 139 125 129 148 167 165 171 170 165 161 158 158 160 157 151 148 147 147 144 145 148 150 141 132 127 121 117 110 103
241 242 254 254 250 249 257 261 255 258 251 254 250 238 201 165 145 151 154 147 148 160 152 150 154 153 153 152 148 151 152 152 154 151 149 147 142 135 132 126 116 111 111 107
229 221 240 251 255 252 253 268 278 266 248 289 293 267 222 202 204 144 112 109 118 127 131 136 140 140 143 143 147 153 155 155 152 144 140 137 134 132 129 123 116 114 113 112
213 211 224 241 252 258 287 309 287 259 289 13 14 20 9 109 91 103 108 106 110 114 122 129 132 136 137 138 142 147 145 143 137 131 130 131 128 125 127 121 117 121 120 117
214 213 215 230 244 247 336 324 343 29 25 20 28 38 39 74 89 97 103 108 116 120 124 127 127 126 127 135 142 141 137 132 129 127 128 125 125 129 128 125 126 128 130 131
233 231 223 224 233 98 48 47 28 30 24 16 29 48 63 86 94 100 106 111 114 118 122 126 126 121 122 129 137 140 131 129 131 131 129 123 117 106 115 130 136 140 153 157
256 290 276 278 156 77 62 48 26 18 12 11 20 32 52 90 100 108 112 110 111 115 120 123 128 127 120 116 116 117 122 127 132 132 128 127 126 121 109 103 118 129 131 143
322 313 281 271 299 6 33 26 9 1 25 21 23 23 40 81 94 105 110 110 109 113 120 120 121 123 127 125 120 118 126 135 137 135 135 139 137 131 110 85 48 54 54 45
292 298 298 298 347 351 2 358 352 1 18 23 27 35 43 68 84 96 104 106 107 108 113 117 120 123 127 125 120 118 125 138 143 144 149 150 143 134 133 123 90 53 60 59